This is the latest recevied weather packets stored in our database for station/object YC0TBU-3. If no packets are shown the sender has not sent any weather packets the latest 10 day(s).
| Time | Temp. | Humidity | Pressure | Rain* | Wind** | Luminosity | Snow |
|---|---|---|---|---|---|---|---|
| 1777542856 | 26.11° C | 50% | 1013.4 hPa | - | - | - | - |
| 1777542151 | 26.11° C | 50% | 1011.6 hPa | - | - | - | - |
| 1777541446 | 25.56° C | 51% | 1013.8 hPa | - | - | - | - |
| 1777540741 | 25.56° C | 49% | 1012.7 hPa | - | - | - | - |
| 1777540036 | 25.56° C | 46% | 1011.6 hPa | - | - | - | - |
| 1777539331 | 25.56° C | 45% | 1011.6 hPa | - | - | - | - |
| 1777538625 | 25.56° C | 45% | 1011.4 hPa | - | - | - | - |
| 1777537921 | 26.11° C | 45% | 1010.7 hPa | - | - | - | - |
| 1777537215 | 26.11° C | 46% | 1010.4 hPa | - | - | - | - |
| 1777536511 | 26.67° C | 45% | 1010.4 hPa | - | - | - | - |
| 1777535811 | 27.22° C | 44% | 1009.6 hPa | - | - | - | - |
| 1777535084 | 26.67° C | 49% | 1011.1 hPa | - | - | - | - |
| 1777534380 | 26.67° C | 50% | 1010.8 hPa | - | - | - | - |
| 1777533674 | 26.11° C | 49% | 1010.6 hPa | - | - | - | - |
| 1777532969 | 26.11° C | 46% | 1011.3 hPa | - | - | - | - |
| 1777532264 | 26.67° C | 45% | 1011 hPa | - | - | - | - |
| 1777531559 | 26.67° C | 47% | 1012.4 hPa | - | - | - | - |
| 1777530855 | 26.67° C | 50% | 1010.7 hPa | - | - | - | - |
| 1777530150 | 26.11° C | 49% | 1011.4 hPa | - | - | - | - |
| 1777529444 | 26.11° C | 49% | 1010.3 hPa | - | - | - | - |
| 1777528739 | 26.11° C | 49% | 1010 hPa | - | - | - | - |
| 1777528035 | 26.11° C | 51% | 1011.5 hPa | - | - | - | - |
| 1777527329 | 26.11° C | 51% | 1010.8 hPa | - | - | - | - |
| 1777526644 | 26.11° C | 51% | 1012 hPa | - | - | - | - |
| 1777525909 | 26.11° C | 51% | 1012.7 hPa | - | - | - | - |
* Rain since midnight (hover to see other rain measurements)
** Current wind speed in m/s (hover to see current wind gust speed)